Tracking 28790 objects as of 18-Apr-2024
HD Live streaming from Space Station
objects crossing your sky now

SL-8 R/B

Track SL-8 R/B now!
10-day predictions


NORAD ID: 20578
Int'l Code: 1990-036B
Perigee: 974.2 km
Apogee: 992.7 km
Inclination: 82.9 °
Period: 104.6 minutes
Semi major axis: 7354 km
RCS: 4.8041 m2 (large)
Launch date: April 20, 1990
Source: Commonwealth of Independent States (former USSR) (CIS)
Launch site: PLESETSK MISSILE AND SPACE COMPLEX (PKMTR)

Note: This is a ROCKET BODY
Your satellite tracking list
Your tracking list is empty




NASA's NSSDC Master Catalog

Two Line Element Set (TLE):
1 20578U 90036B   24109.10039823  .00000058  00000-0  43239-4 0  9990
2 20578  82.9407 306.1062 0012579 189.0231 290.5055 13.76493541707441
Source of the keplerian elements: AFSPC